Weather in Primorsko-Ahtarsk

Russia / Krasnodar Krai     46°02′36″N   38°10′39″E
temp.,
°C
wind,
m/s
gust,
m/s
humid.,
%
clouds,
%
prec.,
mm/h
press.,
hPa
HPBL,
m
26 october, tue
tue2600:00+5ne35535 0.0 1033127
03:00+4ene35540 0.0 1033125
06:00+3ene46570 0.0 1033142
09:00+5e56470 0.0 1034375
12:00+8e45340 0.0 1033910
15:00+10ene45280 0.0 10311079
18:00+7e46360 0.0 1031178
21:00+5e48450 0.0 1031186
27 october, wed
wed2700:00+4e49500 0.0 1030211
03:00+3e49550 0.0 1029188
06:00+3e48610 0.0 1028173
09:00+6e58530 0.0 1028285
12:00+11e45370 0.0 1026635
15:00+13e33320 0.0 1024781
18:00+10e22430 0.0 102413
21:00+8nne11510 0.0 102417
28 october, thu
thu2800:00+8n23560 0.0 102430
03:00+7n3360100 0.0 102440
06:00+6n2259100 0.0 102536
09:00+9nw1251100 0.0 1026145
12:00+12wnw3341100 0.0 1025719
15:00+12w4445100 0.0 1024600
18:00+9w34655 0.0 102594
21:00+8wsw35745 0.0 1024102
29 october, fri
fri2900:00+8sw478475 0.0 1023133
03:00+9sw498898 0.0 1023180
06:00+10wsw498999 0.0 1023220
09:00+11wnw3583100 0.0 1024218
12:00+14nnw44645 0.0 1025592
15:00+16n45540 0.0 1026938
18:00+13nne46650 0.0 102796
21:00+11ene510700 0.0 1029277
30 october, sat
sat3000:00+9ne49720 0.0 1030222
03:00+7ene510650 0.0 1031294
06:00+6ene611680 0.0 1032324
09:00+7e711630 0.0 1034529
12:00+11e79400 0.0 1033889
15:00+12ene79330 0.0 1032942
18:00+10e611420 0.0 1033454
21:00+8e613510 0.0 1033474